Hourly Data Report for January 28, 2020

SATURNA ISLAND CS
BRITISH COLUMBIA
Current Station Operator: ECCC - MSC

48°47'02.067" N
123°02'41.082" W
24.40 m
1017101
71473
WEZ

Download Data

Hourly Data (January 2020)
Hourly Data Report for January 28, 2020
TIME
LST
Temp Definition
°C
Dew Point Definition
°C
Rel Hum Definition
%
Precip. Amount Definition
mm

Wind Dir Definition
10's deg

Wind Spd Definition
km/h
Visibility Definition
km
Stn Press Definition
kPa
Hmdx Definition


Wind Chill Definition


Weather Definition


00:00 7.5 5.7 89 0.0 11 26   100.69     LegendNANA
01:00 8.0 5.9 86 0.0 13 26   100.69     LegendNANA
02:00 7.9 6.7 92 1.8 18 15   100.74     LegendNANA
03:00 7.5 6.4 93 0.4 11 24   100.75     LegendNANA
04:00 7.2 6.3 94 0.0 11 16   100.72     LegendNANA
05:00 7.0 6.1 94 0.0 11 19   100.74     LegendNANA
06:00 6.7 5.8 94 0.0 8 22   100.80     LegendNANA
07:00 6.2 5.2 94 0.0 6 23   100.85     LegendNANA
08:00 6.3 5.2 93 0.0 9 23   100.93     LegendNANA
09:00 6.6 5.5 93 0.2 11 17   101.00     LegendNANA
10:00 7.0 5.8 92 0.0 10 20   101.12     LegendNANA
11:00 7.4 5.9 90 0.0 10 14   101.22     LegendNANA
12:00 7.7 6.1 89 0.0 9 10   101.29     LegendNANA
13:00 7.8 6.5 92 0.0 5 9   101.36     LegendNANA
14:00 8.3 6.9 91 0.0 4 8   101.41     LegendNANA
15:00 7.6 6.4 92 0.0 4 12   101.48     LegendNANA
16:00 7.7 6.5 92 0.0 5 6   101.56     LegendNANA
17:00 7.3 6.2 93 0.0 0 1   101.64     LegendNANA
18:00 6.9 6.1 94 0.0 31 4   101.71     LegendNANA
19:00 7.0 6.3 95 0.0 35 5   101.78     LegendNANA
20:00 6.8 6.2 95 0.0 3 8   101.82     LegendNANA
21:00 7.3 6.7 96 0.0 9 10   101.84     LegendNANA
22:00 7.6 6.9 96 0.0 11 12   101.88     LegendNANA
23:00 7.5 6.9 96 0.0 9 12   101.85     LegendNANA

Notes on Data Quality.

Legend

  • E = Estimated
  • M = Missing
  • NA = Not Available*
  • [empty] = Indicates an unobserved value
Date modified: